EW5739 Weather Reports


time (UTC)temp
C
wind
direction
speed
KPH
gust
KPH
rain 1hr
cm
rain 24hr
cm
rain mn
cm
humidity
%
barometer
mb
20260505011722 8 250 0.0 0.0 0.00 0.00 0.00 87 1006.6
20260505011226 8 250 0.0 0.0 0.00 0.00 0.00 86 1006.5
20260505011222 8 250 0.0 0.0 0.00 0.00 0.00 86 1006.6
20260505010826 8 250 0.0 0.0 0.00 0.00 0.00 85 1006.5
20260505005726 9 250 0.0 0.0 0.00 0.00 0.00 84 1006.4
20260505005722 8 250 0.0 0.0 0.00 0.00 0.00 84 1006.5
20260505004725 9 250 0.0 0.0 0.00 0.00 0.00 83 1006.4
20260505004721 9 250 0.0 0.0 0.00 0.00 0.00 83 1006.4
20260505003719 10 250 0.0 0.0 0.00 0.00 0.00 82 1006.3
20260505003218 10 250 0.0 0.0 0.00 0.00 0.00 81 1006.2
20260505002722 10 250 0.0 0.0 0.00 0.00 0.00 80 1005.9
20260505002717 10 250 0.0 0.0 0.00 0.00 0.00 80 1006.0
20260505001718 10 96 0.0 0.0 0.00 0.00 0.00 79 1005.9
20260505001217 10 96 0.0 0.0 0.00 0.00 0.00 78 1005.8
20260505000718 11 96 0.0 0.0 0.00 0.00 0.00 77 1005.8
20260505000219 11 96 0.0 0.0 0.00 0.00 0.00 76 1005.9
20260504235720 11 94 0.0 0.0 0.00 0.00 0.00 75 1005.8
20260504235716 11 87 0.0 0.0 0.00 0.00 0.00 74 1005.8
20260504235320 12 87 0.0 0.0 0.00 0.00 0.00 72 1005.8
20260504234214 12 87 0.0 0.0 0.00 0.00 0.00 71 1005.7
20260504233713 12 87 0.0 0.0 0.00 0.00 0.00 70 1005.6
20260504233214 12 87 0.0 0.0 0.00 0.00 0.00 69 1005.5
20260504232714 13 87 0.0 0.0 0.00 0.00 0.00 69 1005.4
20260504232217 13 86 0.0 0.0 0.00 0.00 0.00 69 1005.3
20260504232213 13 86 0.0 0.0 0.00 0.00 0.00 69 1005.4
20260504231220 13 86 0.0 3.2 0.00 0.00 0.00 68 1005.2
20260504231213 13 86 0.0 0.0 0.00 0.00 0.00 68 1005.4
20260504230714 13 86 0.0 3.2 0.00 0.00 0.00 68 1005.2
20260504225714 14 145 0.0 1.6 0.00 0.00 0.00 67 1005.2
20260504225218 15 221 0.0 0.0 0.00 0.00 0.00 66 1005.1
20260504225214 15 53 0.0 0.0 0.00 0.00 0.00 68 1005.1
20260504224818 15 220 0.0 0.0 0.00 0.00 0.00 66 1004.9
20260504223718 16 220 0.0 1.6 0.00 0.00 0.00 65 1005.0
20260504223714 15 220 0.0 0.0 0.00 0.00 0.00 66 1004.9
20260504222713 16 153 0.0 1.6 0.00 0.00 0.00 64 1004.8
20260504222214 16 153 0.0 0.0 0.00 0.00 0.00 64 1004.9
20260504221817 17 151 0.0 0.0 0.00 0.00 0.00 58 1004.7
20260504221717 17 242 0.0 1.6 0.00 0.00 0.00 61 1004.8
20260504221713 17 153 0.0 1.6 0.00 0.00 0.00 62 1004.8
20260504220214 17 123 0.0 0.0 0.00 0.00 0.00 58 1004.7
20260504220210 17 122 0.0 0.0 0.00 0.00 0.00 58 1004.8
20260504215209 17 122 0.0 0.0 0.00 0.00 0.00 57 1004.7
20260504214709 17 123 0.0 0.0 0.00 0.00 0.00 57 1004.7
20260504214209 18 120 0.0 0.0 0.00 0.00 0.00 55 1004.7
20260504213710 18 63 0.0 0.0 0.00 0.00 0.00 56 1004.7
20260504213210 18 51 0.0 0.0 0.00 0.00 0.00 54 1004.7
20260504212709 18 98 0.0 0.0 0.00 0.00 0.00 55 1004.7
20260504212210 18 98 0.0 0.0 0.00 0.00 0.00 54 1004.6
20260504211709 18 221 0.0 0.0 0.00 0.00 0.00 54 1004.7
20260504211207 18 222 0.0 0.0 0.00 0.00 0.00 55 1004.7
20260504210708 18 221 0.0 0.0 0.00 0.00 0.00 56 1004.7
20260504210207 18 221 0.0 0.0 0.00 0.00 0.00 56 1004.8
20260504205708 18 221 0.0 0.0 0.00 0.00 0.00 56 1004.7
20260504205207 18 232 0.0 0.0 0.00 0.00 0.00 56 1004.7
20260504204708 18 232 0.0 0.0 0.00 0.00 0.00 56 1004.7
20260504204208 18 232 0.0 1.6 0.00 0.00 0.00 55 1004.6
20260504203707 18 232 1.6 3.2 0.00 0.00 0.00 56 1004.6
20260504203208 18 301 1.6 6.4 0.00 0.00 0.00 56 1004.6
20260504202707 18 278 1.6 8.0 0.00 0.00 0.00 56 1004.6
20260504202201 17 296 1.6 8.0 0.00 0.00 0.00 56 1004.7
20260504201702 17 255 1.6 6.4 0.00 0.00 0.00 57 1004.7
20260504201656 17 282 1.6 4.8 0.00 0.00 0.00 57 1004.7
20260504200648 17 334 1.6 6.4 0.00 0.00 0.00 59 1004.8
20260504200144 17 306 1.6 6.4 0.00 0.00 0.00 60 1004.8
20260504200140 17 253 1.6 6.4 0.00 0.00 0.00 59 1004.8
20260504195125 17 268 1.6 4.8 0.00 0.00 0.00 61 1004.8
20260504194626 16 281 1.6 9.7 0.00 0.00 0.00 61 1004.9
20260504194123 16 314 1.6 9.7 0.00 0.00 0.00 62 1004.9
20260504193620 16 285 1.6 8.0 0.00 0.00 0.00 64 1004.9
20260504193115 16 325 0.0 8.0 0.00 0.00 0.00 64 1004.9
20260504192611 15 262 0.0 3.2 0.00 0.00 0.00 64 1005.0
20260504192104 15 1 0.0 3.2 0.00 0.00 0.00 65 1005.1
20260504191603 15 11 0.0 0.0 0.00 0.00 0.00 66 1004.9
20260504191101 15 23 0.0 0.0 0.00 0.00 0.00 65 1005.1
20260504190602 15 311 0.0 0.0 0.00 0.00 0.00 68 1005.1
20260504190051 14 309 0.0 0.0 0.00 0.00 0.00 68 1005.2
20260504185551 14 41 0.0 0.0 0.00 0.00 0.00 68 1005.3
20260504185051 14 326 0.0 0.0 0.00 0.00 0.00 67 1005.4
20260504184551 14 305 0.0 0.0 0.00 0.00 0.00 67 1005.4
20260504184034 15 11 0.0 0.0 0.00 0.00 0.00 65 1005.3
20260504183533 15 297 0.0 0.0 0.00 0.00 0.00 65 1005.3
20260504183029 15 23 0.0 0.0 0.00 0.00 0.00 65 1005.2
20260504182511 15 281 0.0 1.6 0.00 0.00 0.00 65 1005.2
20260504182011 15 302 0.0 1.6 0.00 0.00 0.00 62 1005.2
20260504181507 15 272 0.0 0.0 0.00 0.00 0.00 64 1005.3
20260504180953 15 15 0.0 0.0 0.00 0.00 0.00 68 1005.2
20260504180449 15 11 0.0 0.0 0.00 0.00 0.00 65 1005.1
20260504175938 15 318 0.0 0.0 0.00 0.00 0.00 61 1005.3
20260504175426 16 317 0.0 0.0 0.00 0.00 0.00 55 1005.1
20260504175421 15 317 0.0 0.0 0.00 0.00 0.00 60 1005.2
20260504174921 15 317 0.0 0.0 0.00 0.00 0.00 56 1005.2
20260504173912 17 233 0.0 0.0 0.00 0.00 0.00 52 1004.9
20260504173907 16 243 0.0 0.0 0.00 0.00 0.00 53 1005.0
20260504172847 17 269 0.0 0.0 0.00 0.00 0.00 52 1004.8
20260504172842 17 116 0.0 0.0 0.00 0.03 0.00 50 1004.8
20260504171841 17 274 0.0 0.0 0.00 0.03 0.00 53 1004.7
20260504171337 17 208 0.0 1.6 0.00 0.05 0.00 53 1004.7
20260504170833 17 234 0.0 4.8 0.00 0.05 0.00 53 1004.5
20260504170331 17 273 1.6 4.8 0.00 0.05 0.00 53 1004.5
20260504150734 15 278 0.0 4.8 0.00 0.20 0.00 63 1005.8
20260504150227 15 270 0.0 0.0 0.00 0.23 0.00 66 1005.8
20260504141212 13 41 0.0 0.0 0.00 0.36 0.00 67 1006.5
20260504141208 13 321 0.0 0.0 0.00 0.38 0.00 67 1006.6
20260504140658 13 237 0.0 0.0 0.00 0.38 0.00 65 1006.7
20260504130518 11 242 0.0 0.0 0.00 0.43 0.00 67 1007.3
20260504110257 2 260 0.0 0.0 0.00 0.53 0.00 91 1007.6
20260504110234 2 260 0.0 0.0 0.00 0.53 0.00 91 1007.6
20260504100612 0 260 0.0 0.0 0.00 0.56 0.00 94 1007.6
20260504100112 0 260 0.0 0.0 0.00 0.56 0.00 94 1007.6
20260504090107 0 260 0.0 0.0 0.00 0.58 0.00 95 1007.4
20260504081606 0 260 0.0 0.0 0.00 0.64 0.00 94 1007.3
20260504081105 0 260 0.0 0.0 0.00 0.64 0.00 94 1007.3
20260504080604 0 260 0.0 0.0 0.00 0.64 0.00 94 1007.4
20260504080103 0 260 0.0 0.0 0.00 0.64 0.00 94 1007.5
20260504050601 1 250 0.0 0.0 0.00 0.64 0.00 91 1006.9
20260504050556 1 249 0.0 0.0 0.00 0.64 0.00 92 1006.9
20260504045053 1 249 0.0 0.0 0.00 0.64 0.00 90 1006.9
20260504044554 1 249 0.0 0.0 0.00 0.64 0.00 89 1006.9
20260504044053 1 249 0.0 0.0 0.00 0.64 0.00 89 1006.9
20260504043558 1 249 0.0 0.0 0.00 0.64 0.00 88 1007.0
20260504043554 1 249 0.0 0.0 0.00 0.64 0.00 89 1006.9
20260504042554 1 249 0.0 0.0 0.00 0.64 0.00 88 1007.0
20260504042054 1 249 0.0 0.0 0.00 0.64 0.00 87 1007.0
20260504041553 1 249 0.0 0.0 0.00 0.64 0.00 87 1007.0
20260504041054 1 249 0.0 0.0 0.00 0.64 0.00 87 1007.0
20260504040554 2 249 0.0 0.0 0.00 0.64 0.00 84 1006.9
20260504040051 2 249 0.0 0.0 0.00 0.64 0.00 83 1006.8
20260504035552 2 249 0.0 0.0 0.00 0.64 0.64 83 1006.7
20260504035052 3 249 0.0 0.0 0.00 0.64 0.64 83 1006.7
20260504034552 3 249 0.0 0.0 0.00 0.64 0.64 83 1006.7
20260504034052 3 249 0.0 0.0 0.00 0.64 0.64 82 1006.6
20260504033552 3 249 0.0 0.0 0.00 0.64 0.64 81 1006.6
20260504033051 3 249 0.0 0.0 0.00 0.64 0.64 80 1006.6
20260504032552 3 249 0.0 0.0 0.00 0.64 0.64 81 1006.5
20260504032052 3 249 0.0 0.0 0.00 0.64 0.64 81 1006.5
20260504031556 3 249 0.0 0.0 0.00 0.64 0.64 79 1006.5
20260504031552 3 249 0.0 0.0 0.00 0.64 0.64 81 1006.5
20260504030550 3 249 0.0 0.0 0.00 0.64 0.64 78 1006.5
20260504030050 3 249 0.0 0.0 0.00 0.64 0.64 78 1006.5
20260504025550 4 249 0.0 0.0 0.00 0.64 0.64 77 1006.5
20260504025050 4 249 0.0 0.0 0.00 0.64 0.64 77 1006.4
20260504024550 4 249 0.0 0.0 0.00 0.64 0.64 75 1006.4
20260504024050 4 249 0.0 0.0 0.00 0.64 0.64 75 1006.3
20260504023550 4 249 0.0 0.0 0.00 0.64 0.64 74 1006.3
20260504023050 4 249 0.0 0.0 0.00 0.64 0.64 74 1006.2
20260504022549 5 249 0.0 0.0 0.00 0.64 0.64 74 1006.2
20260504022048 5 249 0.0 0.0 0.00 0.64 0.64 70 1006.2
20260504021548 5 249 0.0 0.0 0.00 0.64 0.64 70 1006.1
20260504021048 5 249 0.0 0.0 0.00 0.64 0.64 69 1006.1
20260504020548 5 249 0.0 0.0 0.00 0.64 0.64 68 1006.1
20260504020047 6 249 0.0 0.0 0.00 0.64 0.64 68 1006.1
20260504015548 6 264 0.0 0.0 0.00 0.64 0.64 68 1006.1
20260504015052 6 266 0.0 0.0 0.00 0.64 0.64 68 1006.0
20260504015047 6 279 0.0 0.0 0.00 0.64 0.64 68 1006.1
20260504014047 6 264 0.0 0.0 0.00 0.64 0.64 68 1006.0
20260504013547 6 275 0.0 0.0 0.00 0.64 0.64 66 1006.0
20260504013046 6 275 0.0 0.0 0.00 0.64 0.64 65 1005.9
20260504012546 6 265 0.0 0.0 0.00 0.64 0.64 66 1005.9